Fairbanks Ft. Wainwright, AK

8:07 PM AKDT on April 26, 2017 (GMT -0800)
Ladd Army Air Field

Weather History for PAFB - March, 2013

Change the Weather History Date:

Thursday, March 14, 2013

  Actual Average Record
Temperature  
Mean Temperature 5 °F -  
Max Temperature 17 °F 21 °F 39 °F (2001)
Min Temperature -7 °F 0 °F -34 °F (2007)
Degree Days  
Heating Degree Days 60    
Moisture  
Dew Point -16 °F    
Average Humidity 41    
Maximum Humidity 55    
Minimum Humidity 30    
Precipitation  
Precipitation 0.00 in - - ()
Snow  
Snow 0.00 in - - ()
Snow Depth 18.00 in    
Sea Level Pressure  
Sea Level Pressure 30.21 in    
Wind  
Wind Speed 12 mph (ENE)    
Max Wind Speed 16 mph    
Max Gust Speed 25 mph    
Visibility 10 miles    
Events      
Averages and records for this station are not official NWS values.
T = Trace of Precipitation, MM = Missing Value Source: NWS Daily Summary

Daily Weather History Graph

Daily Weather History Graph

Search for Another Location

Airport or City:

Trip Planner

Search our weather history database for the weather conditions in past years. The results will help you decide how hot, cold, wet, or windy it might be!

Date:

Astronomy

Mar. 14, 2013 Rise Set
Actual Time 8:11 AM AKDT 7:49 PM AKDT
Civil Twilight 7:22 AM AKDT 8:38 PM AKDT
Nautical Twilight 6:24 AM AKDT 9:36 PM AKDT
Astronomical Twilight 5:20 AM AKDT 10:41 PM AKDT
Moon 8:11 AM AKDT (3/14) No Moon Set
Length of Visible Light 13h 15m
Length of Day
11h 38m
Waxing Crescent, 10% of the Moon is Illuminated
Mar 14
Waxing Crescent
Mar 19
First Quarter
Mar 27
Full
Apr 2
Last Quarter
Apr 10
New

Hourly Weather History & Observations

Time (AKDT) Temp. Windchill Dew Point Humidity Pressure Visibility Wind Dir Wind Speed Gust Speed Precip Events Conditions
12:56 AM -2.0 °F -22.6 °F -20.0 °F 42% 30.28 in 10.0 mi ENE 16.1 mph 25.3 mph N/A   Partly Cloudy
1:56 AM -2.9 °F -22.4 °F -20.9 °F 42% 30.27 in 10.0 mi ENE 13.8 mph - N/A   Overcast
2:56 AM -4.0 °F -22.1 °F -20.9 °F 44% 30.26 in 10.0 mi ENE 11.5 mph - N/A   Clear
3:56 AM -4.0 °F -21.2 °F -20.9 °F 44% 30.24 in 10.0 mi ENE 10.4 mph - N/A   Clear
4:56 AM -7.1 °F -22.8 °F -22.0 °F 48% 30.23 in 10.0 mi East 8.1 mph - N/A   Clear
5:56 AM -6.0 °F -24.6 °F -20.9 °F 49% 30.21 in 10.0 mi ENE 11.5 mph - N/A   Clear
6:25 AM -4.0 °F -22.1 °F -20.2 °F 46% 30.16 in 7.0 mi ENE 11.5 mph - N/A   Clear
6:55 AM -4.0 °F -19.0 °F -20.2 °F 46% 30.21 in 7.0 mi ENE 8.1 mph - N/A   Clear
6:56 AM -5.1 °F -20.4 °F -20.0 °F 49% 30.21 in 10.0 mi ENE 8.1 mph - N/A   Clear
7:55 AM -4.0 °F -19.0 °F -20.2 °F 46% 30.20 in 7.0 mi ENE 8.1 mph - N/A   Clear
8:55 AM -5.8 °F -21.2 °F -18.4 °F 55% 30.21 in 10.0 mi East 8.1 mph - N/A   Partly Cloudy
9:55 AM -0.4 °F -14.7 °F -18.4 °F 43% 30.20 in 10.0 mi ENE 8.1 mph - N/A   Partly Cloudy
10:55 AM 5.0 °F -10.8 °F -14.8 °F 40% 30.20 in 10.0 mi ENE 11.5 mph - N/A   Partly Cloudy
11:55 AM 8.6 °F -7.0 °F -13.0 °F 37% 30.20 in 10.0 mi ENE 12.7 mph 20.7 mph N/A   Partly Cloudy
12:55 PM 12.2 °F -3.1 °F -11.2 °F 34% 30.21 in 10.0 mi ENE 13.8 mph - N/A   Partly Cloudy
1:55 PM 15.8 °F 0.9 °F -9.4 °F 32% 30.20 in 10.0 mi ENE 15.0 mph 25.3 mph N/A   Partly Cloudy
2:55 PM 17.6 °F 3.2 °F -9.4 °F 30% 30.19 in 25.0 mi ENE 15.0 mph 24.2 mph N/A   Partly Cloudy
3:55 PM 17.6 °F 2.7 °F -7.6 °F 32% 30.19 in 25.0 mi ENE 16.1 mph 23.0 mph N/A   Partly Cloudy
4:55 PM 17.6 °F 5.0 °F -9.4 °F 30% 30.19 in 25.0 mi ENE 11.5 mph 20.7 mph N/A   Partly Cloudy
5:55 PM 15.8 °F 1.4 °F -9.4 °F 32% 30.20 in 25.0 mi ENE 13.8 mph - N/A   Partly Cloudy
6:55 PM 12.2 °F -3.7 °F -9.4 °F 38% 30.20 in 25.0 mi ENE 15.0 mph - N/A   Partly Cloudy
7:55 PM 10.4 °F -4.8 °F -11.2 °F 37% 30.21 in 25.0 mi ENE 12.7 mph - N/A   Partly Cloudy
8:55 PM 8.6 °F -6.3 °F -11.2 °F 40% 30.22 in 25.0 mi ENE 11.5 mph - N/A   Partly Cloudy
11:56 PM 1.9 °F -10.6 °F -14.1 °F 47% 30.22 in 10.0 mi ENE 6.9 mph - N/A   Clear